{"data":{"norad_id":50191,"epoch":"2026-09-20T03:21:46.757664Z","epoch_age_seconds":75805,"freshness":"FRESH","line1":"1 50191U 21125AM  26263.14012451  .00001719  00000+0  62016-4 0  9990","line2":"2 50191  53.1591  93.0463 0001198  88.0180 272.0960 15.34396800265986","mean_motion":15.343968,"eccentricity":0.0001198,"inclination_deg":53.1591,"raan_deg":93.0463,"arg_perigee_deg":88.018,"mean_anomaly_deg":272.096,"bstar":6.2016e-5,"rev_number":26598,"period_min":93.847953801781,"perigee_km":461.8932174978,"apogee_km":463.53228509821,"semimajor_km":6840.849751298,"source":"CELESTRAK","updated_at":"2026-09-20T09:00:39.418588Z"}}